Location: Madrid
(40.4000°N, 3.6830°W)
Time: 20:01:25
(UTC+01:00)

ISS - Pass Details

Date: 03 March 2021
Orbit: 417 x 422 km, 51.6° (Epoch: 26 February)

Event Time Altitude Azimuth Distance (km) Brightness Sun altitude
Exits shadow 06:28:23 - 333° (NNW) 1,542 -1.1 -15.4°
Reaches altitude 10° 06:28:37 10° 337° (NNW) 1,498 -1.1 -15.4°
Maximum altitude 06:30:05 12° 3° (N) 1,367 -1.1 -15.1°
Drops below altitude 10° 06:31:33 10° 29° (NNE) 1,498 -0.5 -14.8°
Sets 06:34:42 0° 61° (ENE) 2,362 1.3 -14.2°
